Wind_Speed
23 23 24 24 24 24 23 23 23 21 17 12 12 13 11 11 11 11 12 12 13 14 15 16 17 19 20 21 21 22 21 20 18 17 16 16 16 16 16 16 16 17 17 17 16 15 13 11 10 9 9 8 8 7 7 6 6 6 6 6 5 4 3 3 3 3 3 3 3 3 4 4 3 3 2 1 1 1 1 1 2 2 2 3 3
24 24 24 24 23 23 21 21 21 19 15 11 12 13 11 10 10 10 11 12 13 13 14 15 16 18 19 20 21 21 20 19 17 16 16 16 15 15 15 16 16 16 17 17 16 15 13 11 10 9 8 8 8 7 6 6 6 6 6 5 4 3 3 3 3 3 4 4 3 3 3 3 3 2 2 1 1 1 1 1 2 2 2 3 3
23 24 24 23 23 22 19 19 19 17 13 11 12 12 11 9 9 10 11 11 12 13 14 14 16 17 18 20 20 21 20 19 17 16 15 15 15 15 15 15 16 16 17 17 16 14 13 11 10 9 8 8 7 7 7 7 6 5 4 4 3 3 3 2 2 3 4 4 3 3 3 2 2 2 1 1 1 1 1 2 2 2 2 3 3
23 24 23 23 23 21 18 17 17 15 13 11 11 12 10 9 9 9 10 11 12 13 14 14 15 17 18 19 20 20 20 19 17 16 15 15 15 14 15 15 16 16 16 16 16 14 12 10 10 9 9 8 8 7 7 6 6 5 4 3 3 2 2 2 2 2 3 3 2 2 2 1 1 1 1 1 1 2 2 2 2 3 3 3 3
22 23 22 22 22 20 17 16 16 15 13 11 11 11 10 8 8 9 10 11 12 13 14 15 15 16 18 19 20 20 20 19 17 15 15 15 14 13 14 15 15 16 16 16 15 14 12 10 9 9 8 8 8 7 6 6 5 4 3 3 2 2 1 2 3 2 2 1 1 1 1 1 1 1 2 2 3 3 3 3 4 4 4 4 4
22 22 21 22 21 18 16 16 16 15 13 11 10 10 9 8 8 9 11 12 12 13 14 15 16 16 17 19 19 20 20 19 17 15 14 14 14 13 13 14 15 15 15 15 15 13 11 10 9 8 8 8 8 7 6 6 5 4 3 2 2 1 1 2 2 2 1 1 0 1 1 1 1 2 3 3 4 4 4 5 5 5 5 5 6
21 21 21 22 20 18 17 16 16 14 13 11 9 9 9 8 8 10 11 12 13 13 14 15 16 17 17 19 19 19 20 19 17 15 14 14 13 12 12 13 14 14 14 14 14 13 11 10 10 9 8 8 8 7 6 6 5 4 3 2 1 1 2 2 2 2 2 1 1 0 1 2 2 2 3 4 5 5 6 6 6 6 6 6 7
21 21 22 21 19 18 17 16 16 14 12 10 9 9 8 8 9 10 12 13 13 14 15 15 16 17 17 18 19 19 20 19 17 15 14 13 13 12 12 12 13 14 13 13 13 13 11 10 10 9 8 8 8 7 7 6 6 4 3 1 1 2 2 3 3 3 3 3 2 2 2 2 3 3 4 5 6 6 7 7 7 7 7 7 7
21 21 21 20 19 17 16 16 15 13 11 9 8 8 8 9 10 11 12 13 14 15 16 16 17 17 18 18 18 19 20 19 16 15 14 12 12 11 11 11 12 13 13 13 13 12 11 10 10 9 8 8 7 7 7 6 6 5 3 1 0 1 3 3 4 4 4 4 3 3 3 3 3 4 5 6 6 7 8 8 8 8 8 8 8
20 21 20 19 18 17 15 15 14 12 10 8 8 8 9 10 11 12 13 14 15 16 17 17 17 18 18 18 18 18 19 18 15 15 14 12 11 10 9 9 10 11 12 12 12 12 11 10 9 9 8 8 7 7 7 7 6 6 4 2 1 1 2 3 4 5 5 5 4 4 4 4 5 5 6 7 7 8 8 9 9 9 9 9 9
19 20 20 18 17 15 14 13 13 11 9 8 8 9 10 11 11 12 14 15 16 17 18 18 18 18 18 18 18 18 19 17 15 14 13 11 10 9 8 8 9 9 10 11 11 11 11 10 9 9 8 8 8 7 7 6 6 6 5 3 2 2 3 4 5 5 5 5 5 5 5 5 5 6 7 8 8 8 9 9 10 10 10 10 10
19 19 19 17 15 13 13 12 11 10 9 8 9 9 10 11 12 13 15 16 17 18 18 18 19 18 18 18 17 18 18 16 14 13 13 11 9 8 7 7 8 8 9 9 10 10 10 10 9 9 8 8 8 8 7 6 6 6 5 5 4 4 4 5 6 6 6 7 7 7 7 6 6 7 8 9 9 9 10 10 10 11 11 11 11
19 19 18 14 12 12 11 11 10 9 8 8 9 9 10 11 12 14 15 16 17 18 18 19 19 18 18 18 18 18 17 15 13 12 11 10 8 7 6 6 7 8 8 8 8 9 9 9 9 9 8 7 7 8 7 7 7 6 6 6 6 5 5 6 6 7 7 8 9 9 9 8 8 8 9 10 10 10 10 10 11 11 12 12 12
20 19 16 13 11 11 10 9 8 8 8 8 9 9 10 11 13 14 15 16 18 18 18 18 18 18 17 18 18 17 16 15 13 11 9 8 7 6 5 5 6 7 8 8 7 8 8 8 8 8 8 7 7 7 7 7 7 7 7 7 7 7 6 7 8 9 9 10 11 11 11 10 9 9 10 11 11 11 11 11 12 12 12 12 12
20 17 14 11 10 10 9 8 7 7 7 8 8 9 10 11 13 14 15 16 17 18 18 18 18 18 17 17 17 15 15 14 12 10 8 7 6 6 5 5 6 7 7 7 7 7 7 7 7 7 7 7 7 7 7 7 7 7 7 6 7 7 7 8 9 10 11 11 12 12 12 11 11 11 12 12 12 12 12 12 13 13 13 13 13
17 14 11 9 8 8 7 7 7 7 7 7 8 9 10 11 13 14 15 17 18 18 18 18 18 17 17 16 15 14 13 12 11 10 8 7 7 6 7 7 7 8 8 7 7 6 6 6 7 6 6 6 7 7 7 8 7 7 7 7 6 7 7 8 9 10 11 12 12 12 12 12 12 13 13 14 14 13 13 13 13 13 13 13 13
13 10 8 8 7 7 7 7 7 7 7 8 9 10 11 12 14 15 16 17 18 18 18 18 17 16 15 14 13 12 12 12 10 9 8 7 7 8 8 8 9 9 8 8 7 6 5 6 7 7 5 5 6 7 8 8 8 8 8 7 7 7 7 8 9 10 11 12 13 12 13 13 13 13 14 15 15 14 14 14 14 14 14 14 14
11 10 9 8 7 6 6 7 7 7 8 8 9 10 11 13 14 15 16 17 18 18 18 17 16 15 14 13 12 12 12 11 10 9 9 7 7 7 8 8 8 8 8 8 8 7 6 6 7 8 6 5 5 7 8 9 9 9 8 8 8 8 8 8 9 10 10 12 13 13 13 13 13 14 15 15 15 14 13 13 14 13 14 14 14
12 10 9 7 6 6 6 7 7 7 8 9 10 11 11 12 13 15 15 16 17 17 16 15 14 14 14 12 12 12 11 10 9 9 9 7 6 5 6 7 7 7 8 8 8 8 8 7 8 9 9 7 6 6 8 9 9 9 9 9 9 9 8 9 9 10 10 11 12 13 13 13 14 14 15 15 14 14 13 13 14 13 13 14 14
11 10 8 7 7 7 7 7 8 8 8 9 10 10 11 12 14 15 15 15 15 14 13 13 13 13 13 12 10 11 11 9 8 9 8 6 5 5 6 7 7 7 8 8 9 9 8 7 8 10 10 9 8 7 8 9 10 9 9 10 10 10 10 9 10 10 11 11 12 13 13 14 14 14 15 14 13 13 13 14 14 14 13 13 13
10 9 8 8 8 8 8 8 8 8 9 9 10 10 11 13 14 14 14 13 13 13 13 13 13 11 12 11 10 10 10 8 8 9 8 7 6 6 7 7 7 8 9 9 9 9 9 8 8 10 11 11 11 9 9 9 10 10 10 11 11 11 11 11 11 11 11 11 12 13 14 14 15 15 15 14 13 13 13 13 13 14 13 13 13
10 9 9 9 9 9 9 8 8 8 9 9 10 10 11 12 13 13 12 12 12 12 13 13 12 11 12 12 11 10 9 8 8 9 9 9 9 9 9 8 7 9 10 10 10 10 9 9 8 10 12 13 13 12 11 10 11 11 11 12 12 12 12 11 12 12 12 12 12 13 14 15 15 15 15 14 13 13 13 13 13 13 13 13 13
11 11 11 10 9 9 9 9 8 9 9 10 10 11 11 12 11 11 11 10 10 11 12 12 12 12 13 13 12 10 8 8 8 9 9 9 10 10 10 8 8 9 11 11 11 11 10 9 9 10 11 13 14 14 13 12 12 12 12 13 13 13 13 13 12 13 13 12 12 13 14 15 16 16 16 15 14 14 13 13 13 13 13 13 14
13 12 11 11 10 10 9 9 9 9 10 10 10 11 11 11 10 9 8 8 9 10 10 11 12 13 13 13 11 10 9 8 8 8 9 9 9 9 10 9 9 11 12 12 12 12 12 11 10 10 11 13 15 15 15 14 13 13 13 14 14 14 14 14 14 14 14 13 13 13 14 15 16 16 16 15 15 14 14 13 13 14 14 14 15
13 12 11 11 10 10 10 10 10 10 9 9 10 10 10 10 8 7 6 6 8 9 10 11 12 12 11 11 10 9 9 9 8 8 8 9 9 9 10 10 11 12 12 13 13 13 13 13 12 12 13 14 15 16 17 16 15 14 14 15 15 15 15 15 15 15 15 15 14 15 15 16 16 15 15 15 15 15 15 14 14 14 14 15 15
13 12 11 10 10 10 10 11 11 11 9 9 9 10 10 9 8 6 6 6 7 9 10 11 11 11 11 10 10 9 9 9 9 8 8 9 9 10 10 11 12 13 13 14 14 14 15 14 13 13 14 15 16 17 18 18 18 16 16 16 17 17 17 17 17 16 16 16 16 16 17 16 16 16 16 15 15 15 15 15 14 14 15 15 15
13 12 11 10 10 11 11 11 11 10 9 9 10 10 9 9 7 6 6 7 8 9 11 11 11 11 10 10 9 9 10 10 10 9 9 9 9 10 11 12 12 13 14 14 15 15 15 15 15 14 14 16 17 18 18 19 19 19 19 19 19 19 18 18 18 18 17 17 17 18 18 17 16 16 16 15 14 15 16 16 15 15 15 15 15
14 13 11 10 11 11 11 11 10 10 9 9 10 9 9 9 8 7 7 7 8 10 11 11 11 10 10 9 8 8 9 10 10 10 10 10 10 10 11 12 13 14 15 15 16 16 16 16 15 15 15 16 17 18 19 19 19 20 21 21 21 21 21 20 19 18 18 18 18 19 18 18 17 17 17 16 14 15 15 16 15 15 15 15 14
14 13 12 11 11 12 12 11 10 10 10 10 10 9 9 9 8 8 8 7 8 10 11 11 11 10 10 8 8 8 9 10 11 11 12 12 11 12 13 14 14 15 15 16 16 17 17 16 15 14 14 15 16 17 18 19 19 20 22 23 23 24 23 23 21 20 19 19 19 19 19 18 18 17 17 16 15 15 15 16 16 16 15 15 14
15 13 12 11 11 12 13 12 11 11 11 10 10 10 10 9 9 9 8 8 8 10 11 12 11 10 8 7 6 7 8 10 11 11 12 12 13 14 14 14 14 14 15 16 16 17 17 16 16 15 14 14 15 16 17 18 19 20 21 23 24 25 25 25 24 22 21 20 19 19 19 19 18 18 17 17 16 15 15 16 16 16 16 15 15
16 14 13 12 10 11 13 13 12 12 11 11 11 11 11 10 10 9 9 8 9 10 11 12 11 10 7 6 6 7 8 10 11 11 12 12 13 14 14 14 14 14 15 16 17 17 17 17 17 17 16 16 15 15 16 17 19 20 21 22 24 26 26 26 26 24 22 21 21 20 19 19 19 18 18 18 17 16 16 16 16 16 16 16 15
16 15 14 13 12 11 13 14 13 12 12 11 11 12 12 11 11 10 10 9 10 10 11 11 11 9 7 6 7 8 9 10 10 10 10 11 12 13 13 14 15 15 15 15 16 17 17 18 18 18 18 17 16 15 15 16 18 19 20 21 23 26 27 26 26 26 23 22 22 21 20 19 19 18 18 19 18 17 16 16 16 15 16 16 15
16 15 13 13 12 12 13 14 13 12 12 12 12 13 13 13 12 12 11 11 11 10 10 10 10 10 8 8 8 9 9 9 9 8 9 10 11 12 14 15 16 16 15 15 16 17 18 18 19 19 18 17 17 16 16 15 16 18 20 20 22 24 27 27 26 26 25 23 23 22 20 19 20 20 19 19 19 17 16 16 16 16 16 16 16
15 14 13 12 12 13 13 14 13 12 12 13 13 13 14 14 14 13 13 12 12 11 10 10 11 10 9 9 8 8 9 8 7 7 8 10 11 12 14 15 15 15 16 16 16 17 18 18 19 19 18 18 18 18 18 17 17 17 18 19 20 22 25 27 26 26 26 25 24 23 21 20 21 21 20 19 18 17 16 16 16 16 16 16 16
14 13 13 12 12 13 13 13 13 13 13 14 14 14 15 15 15 14 14 13 13 12 10 10 11 11 10 10 9 9 9 9 9 10 10 11 12 13 14 14 14 15 16 16 17 17 18 18 19 19 19 19 19 19 19 19 19 18 19 19 19 20 22 25 27 27 27 27 26 25 23 22 22 21 20 19 18 17 16 16 16 17 16 16 16
12 12 13 12 12 12 12 12 13 14 14 14 14 15 15 15 15 15 15 15 14 13 11 10 11 12 12 11 10 10 11 12 13 14 15 15 16 16 15 14 14 15 16 17 17 18 19 19 19 20 20 20 20 20 19 20 20 20 21 20 20 21 22 22 25 28 28 28 28 27 26 24 23 21 20 19 17 15 15 15 16 17 17 17 17
13 12 12 12 12 12 12 12 13 14 14 14 15 15 15 15 16 16 16 16 15 14 13 11 11 12 13 13 12 12 13 14 15 15 16 17 17 17 17 17 16 16 17 17 18 19 19 19 20 21 22 21 21 21 21 21 21 21 22 22 22 23 24 24 23 25 27 29 30 30 29 27 25 24 23 21 18 15 14 15 16 17 18 18 18
14 13 13 12 12 12 12 12 13 14 14 14 15 15 15 16 17 17 17 17 16 16 14 13 12 12 13 14 14 15 15 16 16 16 16 16 16 16 17 18 17 17 17 17 18 19 20 20 21 22 23 23 23 24 23 22 23 23 22 22 23 24 25 25 25 24 25 28 30 32 32 30 29 28 27 26 24 22 19 19 20 19 19 19 19
15 15 13 12 11 12 12 12 13 13 14 14 15 15 16 17 18 18 18 18 17 17 16 15 14 13 14 15 16 16 17 17 17 16 15 15 15 16 17 18 18 18 18 18 19 19 21 22 22 22 23 24 25 25 25 24 24 24 23 23 23 24 25 25 26 26 25 26 29 32 33 33 32 31 30 29 28 28 26 24 23 22 20 20 20
17 17 15 12 11 12 13 13 13 14 15 15 16 17 17 18 18 18 18 18 18 18 17 17 16 15 15 16 17 17 18 18 17 17 16 15 16 16 17 18 18 19 20 20 20 21 22 23 23 24 24 25 26 26 26 26 26 26 26 25 24 25 26 26 27 27 26 26 27 29 32 35 35 34 32 30 29 30 28 24 23 24 23 21 21
18 18 17 15 14 14 14 14 15 15 16 17 17 18 18 18 18 18 18 18 18 18 18 18 18 17 17 17 17 18 18 18 18 18 17 17 17 17 18 19 20 21 21 22 22 22 23 24 24 25 26 26 27 27 27 27 27 27 27 27 27 27 27 27 28 29 28 28 27 27 28 32 36 36 33 30 29 29 27 25 23 24 24 23 22
19 19 18 16 16 16 16 16 16 17 17 18 18 18 18 18 18 18 19 19 19 19 19 19 19 19 19 18 18 18 18 19 19 19 19 18 18 18 19 20 21 22 23 23 24 24 24 24 25 26 27 28 28 28 29 29 28 28 28 28 28 28 28 28 28 29 29 29 29 27 27 29 33 36 33 31 31 30 28 27 25 24 25 26 25
18 18 17 16 16 17 17 17 17 17 17 18 18 18 19 19 19 19 19 19 19 19 19 19 19 20 20 20 19 19 19 19 19 20 20 20 19 20 20 21 21 22 23 24 25 25 25 25 25 26 27 28 28 29 29 30 29 29 29 29 28 28 28 29 29 28 28 28 28 28 27 26 27 32 32 31 32 32 30 28 27 26 26 28 27
18 18 18 17 17 17 17 17 17 17 17 18 18 18 18 19 19 19 19 19 19 19 20 20 20 20 20 20 20 20 20 20 20 20 20 21 21 21 21 22 22 22 23 24 25 26 26 25 25 25 26 27 28 29 29 30 30 30 30 29 28 27 27 29 29 29 28 27 27 28 27 25 24 26 28 30 32 32 31 29 29 28 28 29 29
18 18 18 18 17 17 17 17 17 17 17 17 17 17 17 18 18 18 18 18 19 19 20 21 21 21 21 21 21 21 21 21 21 21 21 21 21 21 22 22 22 23 23 25 25 26 26 25 25 26 26 27 27 27 28 29 30 30 29 28 27 26 26 27 27 28 29 28 26 27 27 26 25 25 25 26 30 32 32 31 31 30 29 29 29
18 18 18 17 17 16 16 17 17 17 17 16 16 16 16 16 16 17 18 18 19 20 20 21 21 21 21 21 22 22 22 22 22 22 22 22 22 21 22 22 22 23 24 25 26 26 25 25 25 26 26 27 27 27 27 28 28 29 29 28 27 26 25 26 26 26 28 29 29 27 27 28 28 27 26 26 28 31 33 34 33 32 30 28 28
16 17 18 17 17 16 16 16 17 17 17 16 16 16 16 16 17 17 18 18 19 19 20 20 21 21 22 22 22 23 23 23 24 24 23 23 23 22 22 22 22 23 24 24 25 25 25 25 25 26 26 26 26 26 26 26 27 28 28 28 27 26 25 26 26 26 25 27 30 30 29 29 29 28 29 29 28 28 32 35 35 34 32 30 29
13 14 15 16 16 15 16 16 17 17 17 17 17 17 17 17 17 17 18 18 19 19 20 20 21 22 22 23 23 23 24 24 24 25 25 24 24 24 23 23 23 23 24 24 25 25 25 25 25 26 26 26 25 26 26 26 26 27 28 28 28 27 26 26 27 27 25 24 26 30 31 31 30 29 29 31 30 28 28 32 35 35 34 33 32
9 11 12 13 14 15 15 16 16 16 16 16 16 17 17 16 16 17 18 18 19 20 20 21 21 22 23 23 24 24 24 24 24 25 25 25 25 25 25 25 24 24 24 24 25 25 25 25 26 26 26 26 26 26 26 26 26 27 27 27 27 27 26 26 27 28 27 25 24 28 31 32 31 30 30 31 32 31 29 29 32 36 35 34 34
9 10 11 12 13 14 14 14 14 14 14 14 15 15 15 16 17 18 19 19 20 21 21 22 22 23 23 24 24 25 25 25 25 25 25 26 26 26 26 26 26 26 26 26 26 26 26 26 26 27 27 27 27 27 27 27 27 27 27 26 25 25 25 25 27 28 28 27 24 25 29 32 32 31 32 32 32 33 33 30 30 33 36 35 36
11 11 12 14 14 14 13 12 12 12 13 13 14 14 15 16 17 19 20 21 22 22 23 23 24 24 25 25 25 26 26 26 26 26 26 27 27 27 27 28 28 28 28 27 27 27 27 27 27 27 28 28 28 28 28 28 28 27 27 26 25 25 24 24 25 27 27 27 25 24 26 30 30 31 33 33 33 33 35 33 30 30 34 36 36
Wind_Direction
308 311 312 313 314 315 317 318 317 318 318 321 330 333 333 338 341 342 344 347 349 350 352 357 0 1 1 1 2 1 0 2 4 7 11 11 12 16 19 22 24 24 23 21 18 17 16 17 19 23 24 24 25 25 27 30 31 35 39 42 44 46 52 64 83 96 107 119 121 124 122 117 110 105 99 87 74 62 43 19 358 354 350 345 342
303 307 309 311 312 313 315 315 315 315 314 317 326 330 330 336 339 340 341 343 344 344 348 354 358 359 359 359 1 360 359 2 5 8 12 12 13 18 20 24 27 27 26 23 22 21 20 21 24 26 25 26 26 27 32 34 36 39 44 49 53 62 66 77 103 117 127 134 134 133 128 121 113 105 89 67 49 37 15 355 344 338 334 332 329
300 304 305 308 311 313 312 312 312 311 309 311 321 326 328 334 337 336 337 337 338 340 345 351 355 356 357 357 359 359 357 1 5 8 12 12 14 19 21 25 28 30 29 26 24 23 24 25 25 26 26 26 25 27 32 34 35 40 47 56 62 78 88 100 118 130 137 138 136 131 120 109 97 82 62 40 22 7 350 338 331 326 321 321 320
298 301 301 305 310 311 308 308 309 307 303 305 314 321 325 331 333 331 330 330 333 337 342 348 351 353 355 356 358 358 357 359 4 8 11 11 14 18 21 25 27 31 31 28 26 25 25 25 25 25 25 25 25 27 30 31 32 36 44 56 67 84 106 118 126 134 137 133 124 108 87 72 56 34 9 349 343 340 331 324 318 316 314 315 315
297 297 298 304 308 307 302 303 305 302 298 300 310 319 322 326 329 324 322 324 329 335 340 344 346 349 353 356 357 358 356 357 2 6 9 9 12 17 21 24 26 30 32 30 28 26 25 25 25 23 22 23 25 28 28 26 27 32 43 54 66 82 112 129 132 133 130 120 97 64 36 23 13 358 346 338 333 327 319 313 311 310 310 310 311
294 293 297 303 304 300 297 299 300 298 294 298 310 317 318 320 322 317 316 321 327 333 337 340 342 346 351 355 356 357 356 355 360 4 6 7 9 14 19 23 25 29 32 31 29 27 26 25 23 22 21 21 23 25 25 21 21 27 40 56 72 95 123 133 137 138 141 140 95 37 1 336 333 338 335 330 323 317 311 306 304 305 307 308 307
289 289 295 300 299 295 292 295 296 294 292 298 310 313 311 314 315 312 314 319 325 329 332 335 338 342 348 352 354 356 355 354 356 0 2 4 7 12 17 20 22 26 30 31 30 28 27 24 21 20 19 19 19 20 20 18 15 18 26 53 98 130 146 156 164 170 184 199 206 254 308 303 314 327 323 320 315 310 305 301 301 303 305 306 306
284 287 294 298 295 292 290 290 292 291 291 298 307 307 306 308 308 309 313 318 322 325 327 332 335 339 345 349 351 353 354 352 353 356 358 1 5 10 15 18 19 22 25 27 28 29 28 24 19 16 15 17 15 16 17 14 11 9 9 21 141 166 174 185 196 200 205 214 219 237 265 283 301 308 308 306 303 300 298 299 302 304 305 305 304
280 286 294 296 292 291 288 287 289 289 291 298 302 301 301 302 304 309 313 316 319 321 324 329 333 337 342 345 347 350 352 351 350 352 353 357 2 8 14 17 18 19 21 23 24 27 29 25 19 13 12 13 11 13 15 12 7 359 354 352 251 200 200 206 217 223 226 229 233 243 259 277 289 293 295 293 292 292 295 299 302 304 303 302 301
278 286 293 293 291 290 288 288 291 292 293 298 299 299 299 301 306 311 313 315 317 319 323 327 331 335 339 341 344 348 350 349 348 349 349 353 359 4 11 16 18 18 18 19 19 22 26 27 21 12 9 10 7 9 13 11 3 354 346 336 302 254 231 228 235 241 245 250 254 257 265 277 284 288 289 287 288 291 295 298 299 299 298 297 297
275 285 290 292 293 291 291 292 294 295 295 297 299 299 301 305 310 312 312 313 315 317 321 325 329 333 336 338 342 346 348 347 347 347 345 348 355 359 7 14 16 17 16 16 16 17 20 24 24 16 7 4 1 0 6 7 1 351 339 326 307 284 259 246 247 252 256 263 266 265 271 277 283 289 289 289 290 292 293 295 295 294 293 293 294
275 284 287 291 294 292 292 294 296 296 296 299 301 303 306 309 310 310 310 312 314 316 319 323 326 330 334 336 339 344 345 344 345 345 341 343 350 353 1 10 12 13 14 12 12 12 13 17 20 17 8 1 356 352 353 356 356 349 336 323 314 303 281 262 255 258 264 270 271 272 275 278 283 288 289 289 289 290 292 293 293 293 293 293 292
278 283 284 287 291 289 291 294 296 296 298 302 304 306 307 309 308 308 309 310 312 314 317 319 323 327 332 334 336 341 342 340 343 342 336 337 344 347 354 5 6 5 6 4 5 6 6 10 14 12 7 1 355 349 344 343 345 345 338 325 316 309 296 277 264 262 267 272 275 276 278 280 284 287 289 288 289 290 292 294 295 296 295 295 294
276 279 279 282 287 288 293 296 295 296 299 301 303 305 307 308 306 306 307 308 309 311 314 316 320 325 329 332 333 337 338 337 339 338 331 328 333 334 337 348 353 354 354 353 354 358 357 359 4 5 1 356 352 347 339 335 336 339 336 327 317 310 302 289 275 267 266 270 275 278 280 283 287 290 291 292 292 294 295 295 296 296 297 298 298
271 275 276 280 287 290 294 292 290 290 293 296 300 303 305 305 303 302 302 303 304 306 310 313 317 321 326 330 331 335 335 333 332 331 323 313 312 313 311 316 326 336 340 339 340 346 347 343 347 355 356 351 345 339 333 329 328 329 327 323 319 313 306 297 287 276 271 271 276 280 284 287 289 293 295 296 297 298 297 296 294 295 297 299 300
267 270 272 278 284 287 287 280 278 280 284 291 296 299 301 300 298 297 297 297 300 304 308 311 313 317 323 327 328 331 332 327 323 324 319 301 297 296 296 299 305 316 325 326 325 330 332 326 325 334 347 346 338 331 325 324 323 321 317 316 318 316 311 303 295 286 278 275 277 282 284 286 290 294 298 301 302 302 300 298 296 296 296 297 297
258 261 267 273 274 275 271 268 270 274 280 287 291 293 296 297 296 295 294 296 299 304 308 309 311 314 319 323 323 325 326 320 312 317 317 301 293 292 292 294 300 308 315 317 313 311 312 308 306 310 323 334 330 324 319 318 318 317 313 311 314 315 312 306 299 293 286 280 278 280 281 284 289 294 299 302 303 302 301 300 300 300 299 296 292
247 254 262 263 262 262 260 263 267 272 279 283 286 289 294 299 300 298 294 296 301 305 308 308 310 312 315 317 316 319 320 314 306 309 313 303 295 295 295 298 302 310 316 318 315 307 300 295 294 294 299 307 311 312 311 311 313 314 312 308 309 312 310 306 301 297 291 283 279 279 282 285 289 294 298 301 301 301 300 300 302 302 302 300 294
243 251 255 251 250 252 253 257 261 269 276 280 284 287 292 300 303 300 296 297 302 306 308 309 311 311 311 312 312 315 316 313 308 305 306 300 298 302 304 306 308 315 323 327 325 318 307 295 289 288 289 290 290 295 299 302 305 308 307 304 304 306 306 304 300 297 293 287 280 278 281 285 288 292 296 298 298 298 299 300 302 303 304 304 302
243 246 244 241 243 245 247 250 256 263 270 276 279 281 286 293 298 299 298 299 301 303 308 311 313 312 313 314 315 316 317 315 312 307 299 286 294 313 314 312 312 321 328 331 332 330 324 310 291 284 285 285 282 281 286 291 295 300 301 298 298 301 303 302 299 296 294 291 283 277 277 280 283 288 292 294 294 295 297 299 301 303 305 306 307
243 242 240 240 239 240 242 245 251 258 266 273 276 279 284 289 294 297 298 298 299 300 306 311 312 313 316 318 318 319 318 314 314 314 301 274 273 308 315 309 309 320 326 330 333 333 334 329 306 288 284 284 282 277 277 282 287 292 294 293 294 296 299 299 298 295 293 292 287 278 274 275 279 283 287 289 290 292 295 298 301 303 304 306 307
240 238 239 239 236 236 238 242 248 258 266 272 277 283 287 291 293 295 296 296 298 300 305 310 311 313 316 317 317 317 315 311 314 317 308 278 265 287 304 301 301 314 320 323 328 330 332 334 323 301 288 286 284 280 275 275 279 284 287 289 290 291 293 294 294 294 293 292 289 281 274 273 276 281 285 285 286 289 293 298 301 302 303 305 306
235 235 236 235 232 233 236 241 249 257 263 269 277 283 286 289 292 292 295 298 302 306 312 314 313 315 315 315 315 314 310 307 310 313 311 294 273 278 291 293 293 304 312 315 318 323 325 327 324 311 297 289 287 284 280 276 276 277 280 283 286 287 288 289 289 290 290 289 287 282 274 272 274 279 284 285 284 287 291 295 298 300 302 304 305
233 234 234 231 230 231 235 240 246 252 259 267 274 278 281 285 287 289 295 304 312 319 323 321 319 318 316 315 312 309 305 303 305 306 308 303 288 282 287 291 294 301 307 310 312 315 318 320 319 314 305 296 290 287 285 281 278 276 276 278 281 284 285 285 285 286 287 285 283 279 273 270 271 275 281 283 283 285 289 292 294 297 300 303 305
233 234 232 230 229 230 234 238 241 246 255 263 268 270 275 279 280 285 296 308 320 327 327 325 324 322 319 315 309 304 302 301 304 304 303 301 298 294 295 298 301 306 310 311 311 311 313 315 316 314 310 304 296 291 288 286 282 278 274 273 275 277 280 281 281 282 283 282 280 276 271 268 268 272 277 281 281 283 287 288 290 294 298 301 304
232 232 231 232 232 232 235 239 240 243 249 255 259 264 269 272 275 282 296 310 324 329 329 328 327 326 322 316 309 303 300 302 305 306 304 301 299 300 301 304 307 311 314 314 312 311 311 313 314 314 313 309 304 297 292 288 285 281 275 271 269 270 272 275 277 278 279 280 278 275 272 269 268 270 274 277 280 283 286 288 290 293 296 299 302
232 229 229 231 232 234 235 237 238 239 242 248 254 261 265 268 273 279 295 312 324 329 330 330 328 325 323 318 311 303 302 304 306 306 304 301 299 300 302 304 308 310 312 311 310 309 310 312 313 313 312 311 308 303 297 292 286 283 279 274 269 267 267 269 271 274 276 277 277 276 275 273 271 271 273 277 279 281 284 286 288 291 293 296 300
232 229 227 227 230 233 234 235 235 236 239 246 252 256 259 262 268 276 292 309 320 326 327 327 326 323 320 317 310 302 300 301 303 304 302 300 298 298 300 304 308 309 309 308 308 308 309 311 312 313 313 313 311 307 302 297 289 282 279 277 273 269 267 267 267 269 272 274 276 278 278 277 273 272 274 277 279 280 282 284 286 288 290 294 298
230 229 229 230 231 231 233 234 234 237 240 244 248 251 253 256 262 272 286 300 310 320 322 323 324 322 319 314 307 298 295 298 300 301 301 300 300 300 302 306 309 310 310 309 310 312 313 313 313 313 315 315 314 311 306 301 293 284 277 275 274 271 269 269 269 268 270 271 273 277 279 280 277 274 274 275 277 278 280 284 286 288 289 292 296
230 228 230 233 233 231 232 233 233 235 239 240 243 248 248 250 257 266 278 290 301 312 318 321 325 323 319 312 305 299 299 301 302 301 301 301 302 303 305 309 311 311 312 314 315 316 318 318 316 315 315 315 315 314 310 305 297 289 281 274 272 271 270 271 271 271 270 271 272 274 276 277 278 276 274 273 273 274 276 280 284 288 291 294 296
228 229 231 231 230 232 230 230 233 234 236 237 241 245 245 248 255 264 272 281 291 303 314 322 326 324 319 311 308 307 305 304 302 300 299 300 303 305 307 311 312 314 315 316 316 318 319 319 318 316 315 315 314 312 310 307 302 296 289 280 273 269 268 270 271 272 272 272 273 273 273 273 274 273 271 270 269 270 272 274 279 284 289 292 294
228 230 230 228 230 235 231 228 232 234 234 236 239 241 241 246 253 260 266 272 281 296 313 322 326 324 318 314 312 310 307 303 300 299 300 302 305 307 308 311 313 315 315 315 316 317 318 318 317 316 317 317 315 312 308 305 305 302 297 289 280 272 268 269 271 272 271 271 272 273 273 272 270 269 267 267 267 267 269 272 276 280 285 288 290
230 229 228 229 232 236 232 229 231 233 235 236 237 238 238 243 250 256 260 265 274 290 308 318 324 323 318 316 315 312 307 303 303 303 305 307 307 308 308 309 312 313 314 314 315 315 315 315 314 314 314 314 311 310 307 303 303 302 300 296 289 280 274 271 272 272 271 269 269 271 273 270 267 266 263 263 264 265 267 271 274 277 282 286 287
228 226 224 225 227 230 229 229 231 234 236 237 236 236 238 242 247 253 257 261 270 284 299 310 319 319 316 316 316 311 304 299 301 304 308 310 310 309 308 310 311 312 312 313 313 313 313 313 313 312 312 310 307 306 306 304 303 300 299 296 292 285 279 274 272 272 271 269 267 267 269 268 266 265 262 261 261 263 265 269 272 274 278 282 284
222 220 218 216 218 222 225 227 231 234 236 236 235 236 239 243 247 251 255 258 266 277 288 302 313 316 314 315 313 305 297 291 292 296 301 305 309 310 309 309 309 310 310 311 312 312 311 312 312 311 311 310 308 306 304 304 304 300 296 294 293 288 282 276 272 270 269 269 267 265 264 264 264 265 263 261 260 261 263 266 270 272 275 278 281
219 216 211 210 212 216 221 226 231 235 236 237 236 239 242 245 248 251 254 258 264 272 280 293 305 311 312 312 309 302 295 290 288 288 291 293 297 302 305 305 305 306 307 309 310 309 308 310 310 309 309 308 306 304 303 302 302 298 295 293 292 290 288 282 274 269 268 268 268 267 265 262 261 262 261 260 261 261 264 267 269 271 273 274 277
223 218 212 211 213 213 217 224 230 235 237 239 240 242 245 248 249 251 253 257 262 268 275 284 295 304 309 309 305 301 298 295 292 290 288 287 287 291 297 300 300 300 302 304 305 304 305 306 306 306 306 307 305 302 301 301 298 295 296 295 292 291 291 289 282 276 272 269 267 267 266 264 261 258 258 260 260 259 266 274 274 273 272 271 273
224 218 212 212 214 215 217 223 229 234 237 241 243 245 246 247 248 250 252 256 261 266 271 277 285 295 301 303 302 302 302 302 301 299 294 290 287 287 292 296 297 298 299 301 301 301 302 302 303 303 304 305 304 302 301 300 297 295 294 292 291 290 290 289 288 286 279 273 270 267 264 263 260 258 257 258 259 261 267 274 274 273 272 270 269
220 215 211 211 216 218 220 223 227 230 236 241 243 243 244 245 247 249 252 257 261 265 268 271 277 284 290 296 300 302 303 305 305 305 301 297 293 291 293 295 297 299 300 300 299 300 301 301 301 302 303 303 302 301 301 299 298 296 293 290 289 289 288 287 287 286 282 278 275 271 266 262 259 259 258 258 260 264 267 270 271 270 269 268 267
217 215 217 222 225 222 222 223 224 227 231 237 241 242 243 244 247 251 255 259 262 265 267 269 272 277 282 288 294 297 301 304 305 306 305 302 298 297 296 297 299 300 301 301 302 302 303 303 302 302 302 302 301 300 299 298 298 298 296 294 292 290 288 287 285 283 282 280 278 275 270 263 258 257 257 259 260 262 265 266 267 266 265 265 266
215 217 223 231 233 228 225 223 223 225 228 233 239 242 243 246 251 255 259 261 264 266 267 268 270 273 277 282 287 293 298 302 303 304 304 303 302 301 301 302 303 303 303 304 305 305 305 305 304 304 303 302 300 298 296 296 297 298 298 297 296 293 291 289 286 284 283 282 281 281 277 269 261 255 254 256 258 260 263 265 265 266 265 263 263
214 218 224 230 232 229 227 225 224 226 228 233 237 241 244 249 254 257 260 262 264 266 267 268 270 272 275 279 283 289 294 298 300 300 301 301 301 301 302 303 304 304 304 304 305 306 306 305 304 304 303 301 299 297 295 294 295 295 295 295 295 294 294 292 289 286 284 282 282 282 282 276 265 256 251 252 256 259 261 264 266 269 269 266 261
215 218 223 226 227 227 227 226 227 228 230 235 239 244 247 250 254 258 260 263 265 267 268 269 270 271 272 275 279 284 287 291 293 295 297 298 299 300 301 301 301 302 302 302 303 304 304 303 302 302 301 300 299 297 295 294 294 294 294 294 294 294 295 294 292 291 287 283 282 281 283 282 272 259 251 250 254 258 260 263 264 264 267 267 262
215 216 220 224 226 228 230 230 232 234 236 242 247 250 250 252 256 260 263 266 268 270 272 272 271 271 271 273 276 280 283 286 288 290 292 294 296 297 298 299 299 299 299 300 301 301 300 300 299 299 299 299 299 298 297 296 295 295 296 296 296 296 295 294 294 294 292 286 281 280 281 282 278 269 259 252 254 258 259 259 259 258 261 264 262
216 218 220 223 227 231 233 235 237 240 243 247 251 253 252 254 258 263 267 269 272 273 274 275 274 273 274 275 276 278 281 283 284 285 287 289 291 293 294 295 296 297 297 298 299 298 298 297 298 299 298 298 298 298 297 296 297 297 298 299 299 299 297 296 295 294 293 291 284 279 278 278 278 276 270 262 259 259 258 257 257 257 259 262 261
221 222 223 225 229 233 236 238 240 242 246 248 251 253 255 258 261 266 270 272 274 275 276 278 278 279 279 279 279 280 281 282 283 283 284 286 287 288 289 291 293 294 296 297 297 296 296 296 297 297 298 297 296 296 295 295 296 298 299 300 301 301 300 299 296 294 292 291 288 281 276 274 274 273 273 271 266 263 259 256 256 257 257 259 259
226 225 226 227 229 233 236 240 242 243 246 248 252 257 261 265 267 270 273 275 277 279 280 282 283 284 284 284 283 283 283 283 283 282 283 283 284 285 286 288 289 291 293 294 294 294 293 294 295 296 296 295 294 294 293 294 295 296 298 300 301 302 302 300 298 296 293 289 287 284 278 274 271 270 269 270 271 269 263 257 255 256 256 256 256
227 226 226 226 228 233 237 240 243 244 247 250 255 262 266 269 271 273 275 277 280 282 284 286 286 286 286 286 285 285 285 284 283 283 282 282 282 283 284 285 287 288 291 293 294 294 293 293 294 295 295 294 292 292 292 293 293 295 297 298 299 300 299 299 297 297 295 290 284 283 281 277 275 271 268 267 269 271 269 264 258 255 255 256 255
223 222 225 229 229 235 239 242 245 246 249 252 257 262 266 270 274 276 278 279 281 283 284 286 286 287 287 287 286 286 286 285 285 284 284 284 284 284 285 286 287 288 289 292 293 294 293 293 293 294 294 294 292 291 291 292 292 294 295 296 297 298 298 297 296 296 296 294 287 282 281 279 277 275 271 268 268 268 271 271 266 259 254 253 253
224 225 229 233 234 238 242 243 247 248 251 255 258 261 266 271 275 278 280 281 282 283 284 286 287 288 288 289 289 289 289 289 289 288 287 287 286 286 286 286 287 287 288 289 291 292 293 293 293 292 293 293 292 291 290 291 292 293 295 296 298 299 299 297 296 296 295 295 293 288 283 279 277 275 273 270 268 268 269 272 273 265 256 252 252
226 233 237 238 239 242 244 246 248 253 255 257 258 262 267 273 276 278 279 281 282 284 286 287 289 290 290 291 291 292 292 292 292 291 291 290 289 288 287 286 286 286 287 287 289 290 292 293 292 292 291 292 291 290 290 290 291 292 293 295 298 299 300 300 298 296 295 295 295 293 288 283 279 276 274 272 271 270 269 270 274 271 261 255 253
Height
5891 5890 5889 5888 5887 5886 5886 5885 5885 5885 5885 5885 5885 5885 5885 5885 5885 5884 5884 5883 5883 5882 5881 5880 5878 5877 5876 5874 5873 5872 5870 5869 5868 5867 5866 5865 5863 5862 5861 5859 5858 5857 5856 5855 5855 5854 5853 5852 5851 5850 5850 5849 5849 5848 5848 5848 5847 5847 5847 5847 5847 5847 5847 5847 5847 5846 5846 5846 5845 5845 5845 5845 5845 5844 5844 5844 5843 5843 5843 5843 5842 5842 5842 5842 5842
5890 5889 5888 5887 5887 5886 5885 5884 5884 5884 5884 5884 5884 5884 5884 5884 5884 5884 5883 5883 5882 5882 5880 5879 5878 5877 5876 5874 5873 5872 5870 5869 5868 5867 5866 5865 5863 5862 5861 5859 5858 5857 5856 5855 5855 5854 5853 5852 5851 5851 5850 5849 5849 5848 5848 5848 5847 5847 5847 5847 5847 5847 5847 5847 5847 5846 5846 5846 5846 5845 5845 5845 5845 5845 5844 5844 5843 5843 5843 5843 5842 5842 5842 5842 5841
5889 5888 5887 5886 5886 5885 5884 5884 5883 5883 5883 5883 5884 5883 5883 5884 5883 5883 5883 5882 5882 5881 5880 5879 5878 5877 5876 5874 5873 5871 5870 5869 5868 5866 5865 5864 5863 5862 5860 5859 5858 5857 5856 5855 5855 5854 5853 5852 5852 5851 5850 5850 5849 5849 5848 5848 5847 5847 5847 5847 5847 5847 5847 5847 5847 5846 5846 5846 5846 5846 5846 5845 5845 5845 5844 5844 5843 5843 5843 5843 5842 5842 5842 5841 5841
5888 5887 5886 5886 5885 5884 5883 5883 5883 5882 5882 5883 5883 5883 5883 5883 5882 5882 5882 5882 5881 5881 5880 5879 5878 5877 5875 5874 5872 5871 5869 5868 5867 5866 5865 5864 5863 5861 5860 5859 5858 5857 5856 5855 5855 5854 5853 5853 5852 5851 5851 5850 5850 5849 5849 5848 5848 5847 5847 5847 5847 5847 5847 5846 5847 5847 5847 5847 5846 5846 5846 5846 5845 5845 5845 5844 5844 5843 5843 5843 5842 5842 5841 5841 5841
5886 5885 5885 5884 5884 5883 5882 5882 5882 5882 5882 5882 5882 5882 5882 5882 5882 5881 5881 5881 5881 5880 5879 5879 5878 5876 5875 5873 5872 5870 5869 5868 5867 5866 5865 5864 5862 5861 5860 5859 5858 5857 5856 5855 5855 5854 5854 5853 5852 5852 5851 5850 5850 5849 5849 5848 5848 5848 5848 5847 5847 5847 5847 5847 5847 5847 5847 5847 5847 5846 5846 5846 5845 5845 5845 5844 5844 5843 5843 5842 5842 5841 5841 5841 5840
5885 5884 5883 5883 5882 5882 5881 5881 5881 5881 5881 5881 5882 5882 5881 5881 5881 5880 5880 5880 5880 5880 5879 5878 5877 5876 5874 5873 5871 5870 5869 5868 5867 5865 5864 5863 5862 5861 5860 5859 5858 5858 5857 5856 5855 5854 5854 5853 5853 5852 5851 5851 5850 5850 5849 5849 5848 5848 5848 5848 5848 5848 5847 5847 5847 5847 5847 5847 5846 5846 5846 5846 5845 5845 5845 5844 5844 5843 5843 5842 5842 5841 5840 5840 5840
5884 5883 5882 5882 5881 5881 5881 5880 5880 5880 5880 5881 5881 5881 5880 5880 5880 5880 5879 5879 5879 5879 5878 5877 5876 5875 5874 5872 5871 5870 5868 5867 5866 5865 5864 5863 5862 5861 5860 5859 5858 5858 5857 5856 5855 5854 5853 5853 5853 5852 5852 5851 5850 5850 5850 5849 5849 5849 5848 5848 5848 5848 5847 5847 5847 5847 5847 5846 5846 5846 5846 5846 5845 5845 5844 5844 5844 5843 5843 5842 5841 5841 5840 5840 5839
5882 5881 5881 5880 5880 5880 5880 5880 5879 5879 5880 5880 5880 5880 5880 5880 5879 5879 5879 5879 5879 5878 5878 5877 5876 5875 5873 5872 5870 5869 5868 5867 5866 5865 5864 5863 5862 5861 5860 5859 5859 5858 5857 5856 5855 5854 5853 5853 5853 5852 5852 5851 5850 5850 5850 5850 5849 5849 5849 5848 5848 5848 5847 5847 5847 5847 5846 5846 5846 5846 5846 5845 5845 5845 5844 5844 5843 5843 5842 5842 5841 5840 5840 5839 5839
5880 5880 5880 5879 5879 5879 5879 5879 5879 5879 5879 5879 5880 5879 5879 5879 5879 5879 5879 5878 5878 5877 5877 5876 5875 5874 5873 5871 5870 5869 5868 5867 5866 5865 5864 5863 5862 5861 5860 5859 5859 5858 5857 5857 5856 5854 5853 5853 5852 5852 5852 5851 5851 5850 5850 5850 5849 5849 5849 5848 5848 5848 5847 5847 5847 5847 5846 5846 5846 5846 5845 5845 5845 5844 5844 5844 5843 5843 5842 5841 5841 5840 5839 5839 5838
5879 5879 5878 5878 5879 5879 5878 5878 5878 5878 5879 5879 5879 5879 5879 5878 5878 5878 5878 5878 5877 5877 5876 5875 5874 5873 5872 5871 5869 5868 5867 5866 5865 5864 5864 5863 5862 5861 5860 5859 5858 5858 5857 5857 5856 5855 5854 5853 5852 5852 5852 5851 5851 5850 5850 5849 5849 5849 5849 5849 5848 5848 5848 5847 5847 5847 5846 5846 5846 5846 5845 5845 5844 5844 5844 5843 5843 5842 5842 5841 5840 5840 5839 5838 5838
5878 5877 5877 5878 5878 5878 5878 5878 5878 5878 5878 5878 5878 5879 5878 5878 5878 5878 5878 5877 5876 5876 5875 5874 5874 5873 5871 5870 5869 5867 5866 5865 5865 5864 5863 5863 5862 5861 5860 5859 5858 5858 5857 5856 5856 5855 5854 5853 5852 5851 5851 5851 5851 5851 5850 5849 5849 5849 5849 5849 5848 5848 5848 5847 5847 5847 5847 5846 5846 5846 5845 5844 5844 5844 5843 5843 5842 5841 5841 5840 5840 5839 5839 5838 5837
5877 5877 5877 5877 5877 5877 5877 5877 5877 5877 5877 5878 5878 5878 5878 5878 5878 5877 5877 5876 5876 5875 5874 5873 5873 5872 5871 5869 5868 5867 5866 5865 5864 5863 5863 5863 5862 5861 5860 5859 5858 5857 5857 5856 5855 5855 5854 5853 5852 5851 5851 5851 5851 5851 5850 5849 5849 5849 5849 5849 5848 5848 5848 5847 5847 5847 5847 5847 5846 5846 5845 5844 5844 5843 5843 5842 5842 5841 5841 5840 5839 5839 5838 5837 5837
5875 5875 5875 5876 5876 5876 5876 5876 5877 5877 5877 5877 5878 5878 5878 5878 5877 5876 5876 5875 5875 5874 5873 5872 5871 5870 5869 5868 5867 5866 5865 5864 5863 5863 5863 5862 5862 5861 5860 5859 5858 5857 5856 5856 5855 5855 5854 5853 5852 5851 5851 5851 5851 5850 5850 5849 5849 5849 5848 5848 5848 5848 5848 5847 5847 5847 5847 5846 5846 5846 5845 5844 5844 5843 5843 5842 5841 5841 5840 5840 5839 5838 5838 5837 5836
5873 5874 5874 5875 5875 5875 5875 5876 5876 5876 5876 5877 5877 5877 5877 5877 5876 5876 5875 5874 5873 5873 5872 5871 5870 5869 5868 5867 5866 5865 5864 5863 5863 5862 5862 5862 5861 5860 5860 5859 5858 5857 5856 5855 5855 5854 5854 5853 5852 5851 5851 5850 5850 5850 5850 5849 5849 5848 5848 5848 5848 5848 5848 5847 5847 5847 5846 5846 5846 5845 5845 5844 5844 5843 5842 5842 5841 5840 5840 5839 5838 5838 5837 5836 5836
5872 5872 5873 5873 5874 5874 5874 5875 5875 5875 5875 5875 5876 5876 5876 5876 5875 5874 5874 5873 5872 5871 5871 5870 5869 5868 5867 5866 5865 5864 5864 5863 5862 5862 5861 5861 5860 5860 5859 5858 5857 5857 5856 5855 5854 5854 5853 5853 5852 5851 5851 5850 5850 5849 5849 5849 5848 5848 5848 5848 5847 5847 5847 5847 5847 5846 5846 5845 5845 5845 5845 5844 5844 5843 5842 5841 5840 5840 5839 5838 5838 5837 5836 5836 5835
5870 5871 5872 5872 5872 5873 5873 5873 5874 5874 5874 5874 5874 5874 5875 5874 5874 5873 5872 5872 5871 5870 5870 5869 5868 5867 5866 5865 5864 5864 5863 5862 5861 5861 5860 5860 5859 5859 5858 5858 5857 5856 5856 5855 5854 5853 5853 5852 5852 5851 5850 5850 5849 5849 5848 5848 5848 5848 5847 5847 5847 5847 5846 5846 5846 5846 5845 5845 5844 5844 5844 5844 5843 5842 5841 5841 5840 5839 5838 5837 5837 5836 5836 5835 5835
5869 5869 5870 5870 5871 5871 5871 5872 5872 5873 5873 5873 5873 5873 5873 5873 5872 5872 5871 5871 5870 5869 5868 5867 5866 5865 5865 5864 5863 5862 5862 5861 5860 5860 5859 5859 5859 5858 5857 5857 5856 5856 5855 5854 5854 5853 5852 5852 5851 5850 5849 5849 5849 5848 5848 5847 5847 5847 5846 5846 5846 5846 5845 5845 5845 5845 5844 5844 5844 5843 5843 5843 5842 5842 5841 5840 5839 5838 5837 5836 5836 5835 5835 5834 5834
5867 5868 5868 5869 5869 5870 5870 5870 5871 5871 5871 5871 5871 5872 5872 5871 5871 5870 5870 5869 5869 5868 5867 5866 5865 5864 5864 5863 5862 5861 5861 5860 5859 5859 5859 5858 5858 5857 5857 5856 5855 5855 5854 5854 5853 5852 5852 5851 5850 5849 5849 5848 5848 5847 5847 5846 5846 5846 5846 5845 5845 5845 5845 5844 5844 5844 5844 5843 5843 5843 5842 5842 5842 5841 5840 5839 5839 5838 5837 5836 5835 5834 5834 5833 5832
5866 5867 5867 5867 5868 5868 5869 5869 5869 5870 5870 5870 5870 5870 5870 5870 5870 5869 5869 5868 5868 5867 5866 5865 5864 5863 5862 5862 5861 5860 5860 5859 5859 5858 5858 5857 5857 5857 5856 5855 5855 5854 5854 5853 5852 5852 5851 5850 5849 5848 5848 5848 5847 5846 5846 5845 5845 5845 5845 5844 5844 5844 5844 5843 5843 5843 5843 5842 5842 5842 5842 5841 5841 5840 5839 5839 5838 5837 5836 5835 5834 5834 5833 5832 5831
5864 5865 5865 5866 5866 5866 5867 5867 5868 5868 5868 5868 5869 5869 5869 5869 5868 5868 5867 5867 5867 5866 5865 5864 5863 5862 5861 5861 5860 5859 5859 5859 5858 5857 5857 5857 5856 5856 5856 5855 5855 5854 5853 5853 5852 5851 5851 5850 5849 5848 5847 5847 5847 5846 5845 5845 5844 5845 5844 5844 5843 5843 5843 5842 5842 5842 5841 5841 5841 5841 5840 5840 5840 5839 5838 5837 5837 5836 5836 5835 5834 5833 5832 5831 5831
5863 5863 5864 5864 5865 5865 5865 5866 5866 5866 5867 5867 5867 5867 5868 5867 5867 5866 5866 5866 5865 5865 5864 5863 5862 5861 5860 5860 5859 5859 5858 5858 5858 5857 5856 5856 5856 5856 5855 5855 5854 5854 5853 5852 5852 5851 5850 5849 5848 5847 5847 5846 5846 5846 5845 5844 5844 5844 5844 5843 5842 5842 5842 5841 5841 5841 5840 5840 5840 5840 5839 5839 5838 5838 5837 5836 5836 5835 5835 5834 5833 5832 5832 5831 5830
5862 5862 5863 5863 5863 5863 5864 5864 5865 5865 5865 5866 5866 5866 5866 5866 5865 5865 5865 5864 5864 5864 5864 5863 5862 5861 5860 5859 5859 5858 5858 5857 5857 5856 5856 5855 5855 5855 5855 5855 5854 5853 5853 5852 5851 5850 5850 5849 5848 5846 5846 5845 5845 5845 5845 5844 5843 5843 5843 5842 5841 5841 5840 5840 5839 5839 5839 5839 5839 5839 5838 5838 5837 5837 5836 5836 5835 5835 5834 5833 5832 5832 5831 5830 5829
5861 5861 5861 5861 5862 5862 5862 5863 5863 5864 5864 5864 5865 5865 5865 5864 5864 5864 5864 5863 5863 5863 5863 5862 5861 5860 5859 5858 5858 5857 5857 5856 5856 5856 5855 5854 5854 5854 5854 5854 5854 5853 5852 5851 5851 5850 5849 5849 5848 5846 5845 5844 5844 5844 5844 5844 5843 5842 5842 5841 5841 5840 5839 5839 5838 5838 5838 5837 5837 5837 5837 5836 5836 5836 5835 5835 5834 5834 5833 5832 5831 5830 5830 5829 5828
5859 5860 5860 5860 5860 5860 5861 5861 5862 5862 5863 5863 5863 5863 5863 5863 5863 5863 5863 5863 5862 5862 5861 5861 5860 5859 5858 5857 5857 5856 5856 5856 5855 5855 5854 5854 5853 5853 5853 5853 5853 5853 5852 5851 5850 5850 5849 5849 5848 5846 5845 5844 5843 5843 5843 5843 5842 5842 5841 5840 5840 5839 5838 5838 5837 5837 5836 5836 5836 5835 5835 5834 5834 5834 5834 5834 5833 5833 5832 5831 5830 5830 5829 5828 5827
5858 5859 5859 5859 5859 5859 5859 5860 5860 5861 5861 5861 5862 5861 5861 5862 5862 5862 5862 5862 5862 5861 5860 5860 5859 5858 5858 5857 5856 5855 5855 5855 5855 5854 5854 5853 5853 5853 5852 5852 5852 5852 5852 5851 5850 5849 5849 5848 5848 5846 5845 5843 5842 5841 5841 5841 5841 5841 5840 5839 5838 5838 5837 5837 5836 5836 5835 5835 5834 5834 5833 5833 5833 5833 5833 5832 5832 5832 5831 5831 5830 5829 5828 5827 5826
5857 5857 5858 5858 5858 5858 5858 5858 5859 5859 5860 5860 5860 5860 5860 5860 5861 5861 5861 5861 5861 5860 5859 5859 5858 5857 5857 5856 5855 5854 5854 5854 5854 5854 5853 5853 5852 5852 5852 5851 5851 5851 5851 5850 5849 5849 5848 5848 5847 5846 5845 5844 5842 5841 5840 5840 5840 5839 5839 5838 5837 5836 5836 5835 5835 5834 5834 5834 5833 5833 5832 5832 5832 5831 5831 5831 5831 5831 5830 5830 5829 5828 5827 5826 5826
5855 5856 5856 5856 5856 5857 5857 5857 5857 5858 5858 5859 5859 5859 5859 5859 5860 5860 5860 5860 5860 5859 5859 5858 5857 5856 5856 5855 5854 5854 5853 5853 5853 5853 5853 5852 5852 5851 5851 5850 5850 5850 5849 5849 5848 5848 5847 5847 5847 5846 5845 5844 5842 5841 5839 5839 5838 5838 5837 5837 5836 5835 5834 5834 5833 5833 5833 5832 5832 5832 5831 5831 5831 5830 5830 5830 5830 5830 5829 5829 5828 5828 5827 5826 5825
5854 5854 5854 5855 5855 5855 5855 5855 5856 5856 5857 5857 5857 5858 5858 5858 5859 5859 5859 5859 5859 5858 5858 5857 5856 5855 5854 5854 5853 5853 5853 5852 5852 5852 5852 5851 5851 5850 5850 5849 5849 5848 5848 5847 5847 5846 5846 5846 5845 5845 5845 5844 5842 5841 5839 5838 5837 5837 5836 5835 5834 5833 5833 5832 5832 5831 5831 5831 5831 5830 5830 5830 5830 5830 5829 5829 5829 5829 5828 5828 5828 5827 5826 5825 5824
5852 5853 5853 5853 5854 5854 5854 5854 5854 5855 5855 5856 5856 5857 5857 5857 5858 5858 5858 5858 5858 5857 5857 5856 5855 5854 5853 5853 5852 5852 5852 5852 5852 5851 5851 5850 5850 5849 5849 5848 5847 5847 5846 5846 5845 5845 5844 5844 5844 5844 5844 5843 5842 5841 5839 5837 5836 5835 5834 5834 5833 5832 5831 5831 5830 5830 5830 5829 5829 5829 5829 5829 5829 5829 5828 5828 5828 5827 5827 5827 5826 5826 5825 5825 5824
5850 5851 5852 5852 5853 5853 5853 5853 5853 5853 5854 5854 5855 5855 5856 5856 5856 5857 5857 5857 5856 5856 5855 5854 5854 5853 5852 5852 5851 5851 5851 5851 5851 5850 5850 5849 5849 5848 5847 5847 5846 5846 5845 5845 5844 5843 5843 5842 5842 5842 5842 5842 5841 5840 5839 5837 5835 5833 5832 5832 5831 5830 5830 5829 5829 5829 5828 5828 5828 5828 5827 5827 5827 5827 5827 5827 5826 5826 5826 5826 5825 5825 5824 5824 5823
5848 5849 5850 5851 5851 5851 5851 5851 5852 5852 5852 5853 5853 5854 5855 5855 5855 5855 5856 5856 5855 5855 5854 5853 5853 5852 5851 5851 5851 5850 5850 5850 5850 5849 5849 5848 5848 5847 5846 5846 5845 5845 5844 5844 5843 5842 5841 5841 5840 5840 5840 5840 5840 5839 5838 5836 5834 5832 5831 5830 5829 5829 5828 5828 5827 5827 5827 5827 5826 5826 5826 5826 5825 5825 5826 5825 5825 5825 5824 5825 5824 5824 5823 5823 5822
5846 5847 5848 5849 5850 5850 5850 5850 5850 5850 5851 5851 5852 5853 5853 5854 5854 5854 5854 5854 5854 5854 5853 5852 5852 5851 5851 5850 5850 5850 5849 5849 5849 5848 5848 5847 5846 5846 5845 5845 5844 5844 5844 5843 5842 5841 5840 5839 5838 5838 5837 5837 5837 5837 5836 5835 5833 5831 5830 5828 5827 5827 5827 5826 5826 5825 5825 5825 5825 5825 5825 5824 5824 5823 5824 5824 5823 5823 5823 5823 5823 5823 5822 5822 5821
5844 5845 5846 5847 5848 5848 5848 5849 5849 5849 5849 5850 5850 5851 5852 5852 5853 5853 5853 5853 5853 5853 5852 5852 5851 5850 5850 5849 5849 5848 5848 5848 5848 5847 5847 5846 5845 5845 5844 5843 5843 5843 5842 5842 5841 5840 5839 5838 5837 5836 5836 5835 5834 5834 5834 5833 5832 5830 5828 5827 5826 5825 5824 5825 5825 5824 5823 5823 5823 5823 5823 5822 5822 5821 5821 5821 5821 5822 5821 5821 5821 5821 5821 5820 5820
5842 5843 5844 5845 5846 5846 5847 5847 5848 5848 5848 5849 5849 5850 5850 5851 5851 5851 5852 5852 5852 5852 5851 5851 5850 5849 5849 5848 5847 5847 5847 5847 5847 5847 5846 5845 5845 5844 5843 5842 5842 5841 5840 5840 5839 5838 5837 5837 5836 5835 5834 5833 5832 5831 5831 5830 5830 5829 5828 5826 5824 5823 5823 5822 5823 5823 5822 5821 5821 5821 5821 5821 5820 5820 5819 5819 5819 5820 5820 5820 5820 5820 5820 5819 5819
5841 5841 5842 5843 5844 5845 5845 5846 5846 5847 5847 5847 5848 5848 5849 5849 5850 5850 5850 5850 5850 5850 5850 5850 5849 5848 5847 5847 5846 5846 5846 5846 5846 5846 5845 5844 5844 5843 5842 5841 5840 5839 5838 5838 5837 5836 5835 5835 5834 5833 5832 5831 5830 5830 5829 5828 5828 5827 5826 5825 5823 5822 5821 5820 5820 5820 5820 5819 5819 5818 5818 5818 5818 5818 5818 5818 5818 5818 5818 5818 5818 5818 5818 5818 5818
5839 5840 5841 5841 5842 5843 5844 5844 5845 5845 5845 5846 5846 5847 5847 5848 5848 5848 5849 5849 5849 5849 5849 5848 5848 5847 5846 5846 5845 5845 5845 5845 5845 5844 5844 5843 5842 5841 5841 5840 5839 5838 5837 5836 5835 5834 5834 5833 5832 5831 5830 5829 5829 5828 5827 5827 5826 5824 5823 5823 5822 5821 5820 5819 5818 5818 5818 5817 5817 5816 5816 5816 5816 5816 5816 5816 5816 5816 5816 5816 5816 5816 5816 5816 5816
5838 5838 5839 5840 5841 5842 5842 5843 5843 5843 5844 5844 5845 5845 5846 5846 5846 5847 5847 5847 5847 5847 5847 5847 5846 5845 5845 5844 5844 5844 5843 5843 5843 5842 5842 5841 5841 5840 5839 5838 5837 5836 5835 5834 5834 5833 5832 5831 5831 5829 5828 5827 5826 5826 5826 5825 5823 5822 5821 5821 5820 5819 5818 5817 5816 5816 5816 5815 5815 5814 5813 5814 5814 5814 5814 5814 5814 5814 5815 5814 5814 5814 5814 5814 5814
5837 5837 5838 5838 5839 5840 5841 5841 5841 5842 5842 5843 5843 5844 5844 5844 5845 5845 5845 5845 5845 5845 5845 5845 5845 5844 5843 5843 5842 5842 5841 5841 5840 5840 5839 5839 5839 5838 5838 5836 5835 5835 5834 5833 5832 5831 5830 5829 5829 5828 5826 5825 5824 5824 5824 5823 5821 5820 5820 5819 5818 5817 5816 5816 5815 5814 5814 5813 5812 5811 5811 5811 5811 5811 5811 5812 5812 5812 5813 5812 5812 5812 5812 5812 5812
5835 5835 5836 5837 5838 5839 5839 5840 5840 5840 5841 5841 5841 5842 5842 5843 5843 5843 5843 5844 5844 5844 5843 5843 5843 5843 5842 5841 5841 5840 5840 5839 5839 5838 5838 5837 5837 5836 5836 5834 5833 5832 5832 5831 5830 5830 5829 5828 5827 5826 5824 5823 5821 5821 5820 5820 5818 5818 5817 5817 5816 5815 5814 5813 5812 5812 5811 5810 5810 5809 5808 5808 5808 5808 5808 5809 5809 5809 5810 5810 5809 5809 5809 5810 5810
5833 5834 5834 5835 5836 5837 5837 5838 5838 5839 5839 5840 5840 5840 5841 5841 5841 5842 5842 5842 5842 5842 5842 5842 5841 5841 5840 5840 5839 5839 5838 5838 5837 5836 5836 5835 5834 5834 5833 5832 5831 5831 5830 5829 5829 5828 5827 5825 5824 5823 5822 5821 5819 5818 5817 5816 5815 5814 5813 5813 5813 5812 5811 5811 5810 5809 5808 5808 5807 5807 5806 5805 5804 5804 5805 5806 5807 5806 5806 5807 5806 5806 5806 5807 5807
5830 5831 5832 5833 5834 5835 5835 5835 5836 5837 5837 5838 5839 5839 5839 5840 5840 5840 5840 5840 5840 5840 5840 5840 5839 5839 5839 5838 5838 5837 5837 5836 5835 5835 5834 5833 5833 5832 5831 5831 5830 5829 5828 5827 5827 5826 5825 5823 5822 5821 5820 5818 5817 5816 5815 5814 5813 5811 5810 5810 5810 5809 5808 5807 5806 5806 5805 5805 5804 5804 5803 5801 5800 5800 5802 5803 5803 5803 5803 5804 5804 5803 5803 5804 5804
5828 5829 5830 5831 5832 5832 5833 5833 5834 5834 5835 5836 5837 5838 5838 5838 5838 5838 5838 5838 5838 5838 5838 5838 5838 5837 5837 5837 5836 5836 5835 5834 5834 5833 5832 5832 5831 5830 5830 5829 5828 5827 5826 5825 5824 5824 5822 5821 5820 5818 5817 5816 5814 5813 5812 5811 5811 5810 5808 5808 5807 5805 5805 5804 5803 5803 5802 5802 5801 5800 5799 5798 5797 5796 5798 5799 5799 5800 5800 5801 5801 5801 5801 5801 5801
5826 5827 5828 5829 5830 5830 5831 5831 5832 5832 5833 5834 5835 5836 5836 5836 5836 5836 5836 5836 5836 5836 5836 5836 5836 5836 5835 5835 5835 5834 5834 5833 5832 5831 5830 5830 5829 5828 5828 5827 5826 5825 5824 5823 5822 5821 5820 5819 5818 5817 5815 5813 5812 5811 5810 5809 5808 5807 5806 5805 5804 5803 5802 5800 5799 5799 5799 5799 5798 5797 5796 5795 5794 5793 5795 5796 5795 5796 5797 5798 5798 5798 5798 5798 5798
5824 5825 5826 5827 5828 5829 5829 5830 5830 5831 5832 5832 5833 5834 5834 5834 5834 5834 5834 5834 5834 5834 5834 5834 5834 5834 5834 5833 5833 5833 5832 5831 5831 5830 5829 5828 5827 5826 5826 5825 5824 5823 5822 5821 5820 5819 5818 5817 5816 5814 5813 5811 5809 5808 5807 5806 5804 5804 5803 5802 5801 5801 5799 5797 5796 5796 5795 5795 5795 5794 5793 5792 5791 5791 5792 5792 5792 5792 5794 5795 5794 5794 5795 5795 5795
5822 5823 5824 5825 5826 5827 5828 5828 5829 5830 5830 5831 5831 5831 5831 5831 5831 5831 5832 5832 5832 5832 5832 5832 5832 5832 5831 5831 5831 5830 5830 5829 5829 5828 5827 5826 5825 5824 5824 5823 5822 5821 5820 5819 5818 5817 5816 5815 5813 5812 5810 5809 5807 5806 5804 5803 5801 5800 5800 5799 5798 5798 5797 5795 5794 5793 5792 5791 5792 5791 5790 5789 5789 5788 5789 5789 5789 5789 5790 5791 5791 5791 5792 5792 5792
5820 5821 5822 5823 5824 5825 5826 5827 5827 5828 5828 5829 5829 5829 5829 5829 5829 5829 5830 5830 5830 5830 5830 5829 5829 5829 5829 5829 5829 5828 5828 5827 5826 5826 5825 5824 5823 5823 5822 5821 5820 5819 5818 5817 5816 5815 5814 5813 5811 5810 5808 5806 5805 5803 5802 5801 5799 5797 5797 5796 5795 5795 5794 5793 5792 5792 5790 5788 5788 5788 5787 5786 5786 5786 5786 5786 5785 5785 5786 5787 5787 5788 5788 5789 5789
5818 5819 5820 5821 5822 5823 5824 5824 5825 5826 5826 5827 5827 5827 5827 5827 5827 5827 5827 5827 5827 5827 5827 5827 5827 5827 5826 5826 5826 5826 5825 5825 5824 5823 5823 5822 5821 5820 5819 5819 5818 5817 5816 5815 5814 5813 5812 5811 5809 5808 5806 5804 5803 5801 5800 5799 5797 5795 5794 5793 5793 5792 5791 5790 5790 5789 5789 5787 5785 5783 5783 5783 5783 5784 5783 5782 5782 5782 5782 5782 5783 5784 5785 5785 5786
5816 5817 5818 5819 5820 5821 5821 5822 5823 5824 5824 5825 5825 5825 5825 5825 5826 5826 5825 5825 5825 5825 5825 5824 5824 5824 5824 5824 5824 5823 5823 5822 5822 5821 5820 5820 5819 5818 5817 5816 5816 5815 5814 5813 5812 5811 5809 5808 5807 5805 5804 5802 5801 5800 5798 5797 5795 5794 5792 5791 5790 5789 5788 5787 5786 5786 5786 5786 5783 5780 5779 5779 5779 5780 5779 5779 5779 5779 5778 5778 5779 5780 5781 5782 5782
5814 5815 5816 5817 5818 5819 5820 5820 5821 5822 5823 5823 5823 5824 5824 5824 5824 5823 5823 5823 5823 5822 5822 5822 5822 5822 5822 5821 5821 5821 5820 5820 5819 5819 5818 5817 5816 5815 5815 5814 5813 5812 5811 5810 5809 5808 5807 5805 5804 5803 5801 5800 5799 5798 5796 5795 5793 5792 5790 5789 5787 5786 5785 5784 5783 5782 5782 5782 5782 5779 5776 5775 5776 5776 5775 5775 5775 5775 5775 5775 5775 5776 5777 5778 5778
5812 5813 5814 5815 5816 5817 5818 5819 5820 5820 5821 5821 5821 5822 5822 5822 5821 5821 5821 5820 5820 5820 5820 5820 5820 5819 5819 5819 5818 5818 5817 5817 5816 5816 5815 5814 5814 5813 5812 5811 5810 5809 5808 5807 5806 5805 5803 5802 5801 5800 5799 5797 5796 5795 5794 5792 5791 5789 5788 5786 5785 5784 5783 5782 5780 5779 5778 5778 5778 5777 5775 5772 5772 5772 5771 5771 5771 5771 5771 5772 5772 5771 5772 5773 5773
5810 5811 5812 5813 5814 5815 5816 5817 5818 5818 5819 5819 5819 5819 5819 5819 5819 5819 5818 5818 5818 5818 5818 5817 5817 5817 5816 5816 5815 5815 5814 5814 5813 5813 5812 5811 5811 5810 5809 5808 5807 5806 5805 5804 5802 5801 5800 5799 5798 5797 5796 5795 5793 5792 5791 5790 5788 5787 5785 5784 5782 5781 5780 5779 5777 5776 5775 5774 5774 5774 5772 5770 5770 5769 5767 5767 5767 5767 5767 5768 5768 5768 5768 5769 5769